[[{"header":{"parameterUnit":"m.s-1","parameterCategory":1,"la1":30.2991,"la2":30.254,"lo1":-89.0895,"lo2":-89.0444,"dy":0.0017,"dx":0.0017,"nx":28,"ny":28,"refTime":"2024-06-28T03:00:00:Z","depth":0,"parameterNumber":2,"parameterNumberName":"U-component_of_WINDS"},"data":[0,0,0,0,0,0,0,0,0,0,0,0,0,0,0,0,0,0,0,0,0,0,0,0,0,0,0,0,0,0,0,0,0,0,0,0,0,0,0,0,0,0,0,0,0,0,0,0,0,0,0,0,0,0,0,0,0,0,-0.4711,-0.471,0,-0.4628,-0.4627,-0.4626,-0.4588,-0.4588,-0.4588,-0.4588,-0.4499,-0.4496,-0.4494,0,0,0,0,0,0,0,0,0,0,0,0,0,-0.4834,-0.4832,-0.4711,-0.471,-0.4709,-0.4628,-0.4627,-0.4626,-0.4588,-0.4588,-0.4588,-0.4589,-0.45,-0.4497,-0.4494,0,0,0,0,0,0,0,0,0,0,0,0,0,-0.4769,-0.4831,-0.4711,-0.4681,-0.4677,-0.4628,-0.4627,-0.4625,-0.4588,-0.4588,-0.4588,-0.4589,-0.4501,-0.4497,-0.4493,-0.4467,0,0,-0.4482,-0.448,0,0,0,0,0,0,0,0,-0.4773,-0.4764,-0.4686,-0.4683,-0.4679,-0.4619,-0.4637,-0.4572,-0.4588,-0.4622,-0.4588,-0.4589,-0.4538,-0.4531,-0.4515,-0.4463,-0.4459,-0.4482,-0.4479,-0.4478,-0.4477,0,0,0,0,0,0,0,-0.4777,-0.4768,-0.4678,-0.4685,-0.468,-0.467,-0.4661,-0.4625,-0.458,-0.4619,-0.4616,-0.4607,-0.4536,-0.4519,-0.4513,-0.4458,-0.4482,-0.4478,-0.4476,-0.4475,-0.4381,-0.438,0,0,0,0,0,0,-0.4787,-0.4772,-0.4681,-0.4676,-0.4727,-0.4668,-0.4657,-0.4638,-0.458,-0.4572,-0.4607,-0.4605,-0.4525,-0.4517,-0.451,-0.4476,-0.4478,-0.4474,-0.4472,-0.4381,-0.4381,-0.438,0,0,0,0,0,0,-0.479,-0.4779,-0.4684,-0.4723,-0.471,-0.4665,-0.4644,-0.4636,-0.4619,-0.4571,-0.4563,-0.4598,-0.4525,-0.4515,-0.4479,-0.4472,-0.4473,-0.4469,-0.4381,-0.4381,-0.438,-0.4408,0,0,0,0,0,0,-0.4794,-0.4781,-0.4771,-0.4723,-0.4708,-0.4656,-0.4643,-0.4634,-0.4613,-0.461,-0.4561,-0.4552,-0.4524,-0.4484,-0.4475,-0.4467,-0.4466,-0.4382,-0.4381,-0.4381,-0.4407,-0.4408,-0.4409,0,0,0,0,0,-0.4798,-0.4781,-0.4771,-0.476,-0.4695,-0.4655,-0.4647,-0.4616,-0.4613,-0.4602,-0.4572,-0.4554,-0.4475,-0.4481,-0.447,-0.4461,-0.4382,-0.4381,-0.4381,-0.4407,-0.4408,-0.4409,0,0,0,0,0,0,-0.4828,-0.4774,-0.4762,-0.4729,-0.4697,-0.4649,-0.4635,-0.4618,-0.4586,-0.4584,-0.4546,-0.4535,-0.4503,-0.4478,-0.4486,-0.4433,-0.4427,-0.4424,-0.445,-0.4451,-0.4452,-0.4458,-0.4463,0,0,0,0,0,-0.4831,-0.4804,-0.4758,-0.4733,-0.4718,-0.4679,-0.4661,-0.464,-0.4605,-0.4591,-0.4558,-0.4523,-0.449,-0.4469,-0.4437,-0.4404,-0.4392,-0.4392,-0.4393,-0.4394,-0.4392,-0.4373,-0.4373,-0.4378,-0.4378,-0.4378,0,0,-0.4836,-0.4803,-0.4788,-0.4738,-0.4711,-0.4683,-0.4668,-0.4639,-0.4618,-0.4586,-0.455,-0.4525,-0.4483,-0.4449,-0.4432,-0.4428,-0.4388,-0.4394,-0.4395,-0.4392,-0.4373,-0.4372,-0.4372,-0.4378,-0.4378,-0.4378,0,0,-0.4831,-0.4804,-0.4781,-0.4755,-0.4714,-0.4689,-0.4684,-0.4638,-0.462,-0.4584,-0.456,-0.4534,-0.4478,-0.445,-0.4428,-0.4415,-0.4397,-0.4405,-0.441,-0.4392,-0.4392,-0.4391,-0.4386,-0.4385,-0.4403,-0.4403,-0.4403,0,-0.4843,-0.4801,-0.4771,-0.4743,-0.4722,-0.4694,-0.467,-0.4645,-0.4595,-0.4581,-0.4577,-0.4507,-0.4478,-0.4437,-0.4434,-0.4417,-0.4409,-0.441,-0.4395,-0.4394,-0.4393,-0.4387,-0.4386,-0.4404,-0.4404,-0.4404,-0.4404,0,-0.4816,-0.4788,-0.4774,-0.4729,-0.4706,-0.468,-0.4645,-0.4625,-0.4607,-0.4582,-0.4545,-0.4509,-0.4469,-0.4458,-0.4439,-0.4414,-0.4412,-0.4402,-0.4395,-0.4394,-0.4388,-0.4386,-0.4406,-0.4406,-0.4405,-0.4405,0,0,-0.4827,-0.4767,-0.4762,-0.4742,-0.4696,-0.4672,-0.4645,-0.4608,-0.4591,-0.4558,-0.4534,-0.4489,-0.448,-0.4455,-0.4433,-0.4417,-0.4409,-0.4409,-0.4407,-0.441,-0.4379,-0.4387,-0.4386,-0.4398,-0.4397,-0.4397,-0.4383,0,-0.4816,-0.4768,-0.474,-0.4703,-0.4676,-0.4649,-0.4626,-0.4595,-0.4571,-0.4544,-0.4516,-0.4485,-0.4475,-0.446,-0.4444,-0.4414,-0.4402,-0.4414,-0.4374,-0.4373,-0.4385,-0.4383,-0.439,-0.4379,-0.4381,-0.438,-0.438,0,-0.4796,-0.4766,-0.4726,-0.4684,-0.4672,-0.4651,-0.4615,-0.459,-0.4554,-0.4537,-0.4511,-0.449,-0.4459,-0.4455,-0.4413,-0.4422,-0.4403,-0.4386,-0.4385,-0.438,-0.4376,-0.4377,-0.4375,-0.4373,-0.4376,-0.4376,-0.4377,0,-0.4808,-0.4757,-0.4726,-0.471,-0.466,-0.4646,-0.4625,-0.4589,-0.4569,-0.4536,-0.4522,-0.4487,-0.4467,-0.444,-0.4409,-0.4409,-0.4369,-0.4362,-0.4354,-0.4355,-0.4346,-0.4347,-0.4341,-0.4335,-0.4336,-0.4336,-0.4336,0,-0.4798,-0.4775,-0.4731,-0.4713,-0.4686,-0.4654,-0.4628,-0.4604,-0.4573,-0.4549,-0.4524,-0.4501,-0.4462,-0.4434,-0.441,-0.4379,-0.437,-0.4355,-0.4349,-0.4357,-0.4359,-0.4344,-0.4344,-0.4335,-0.4335,-0.4335,-0.4335,0,-0.4806,-0.4776,-0.4741,-0.4698,-0.4686,-0.4669,-0.4631,-0.4611,-0.4587,-0.4556,-0.4547,-0.4508,-0.4475,-0.4442,-0.4396,-0.438,-0.4348,-0.434,-0.4361,-0.4357,-0.4351,-0.4352,-0.4335,-0.4331,-0.4329,-0.4329,-0.4329,0,-0.4801,-0.4783,-0.4738,-0.4721,-0.47,-0.4673,-0.4652,-0.462,-0.46,-0.4558,-0.4544,-0.4509,-0.4479,-0.4427,-0.4393,-0.4358,-0.4349,-0.4345,-0.4343,-0.4353,-0.4348,-0.435,-0.4348,-0.4346,-0.4346,-0.4346,-0.4346,0,-0.4797,-0.4783,-0.4755,-0.4722,-0.4698,-0.467,-0.4641,-0.4628,-0.4591,-0.4569,-0.4535,-0.4512,-0.4467,-0.4432,-0.4394,-0.437,-0.4352,-0.4348,-0.4344,-0.4352,-0.4365,-0.4358,-0.4363,-0.4348,-0.4348,-0.4348,-0.4348,-0.4348,-0.4798,-0.4781,-0.4747,-0.4716,-0.4692,-0.4665,-0.4645,-0.4619,-0.4591,-0.4552,-0.4535,-0.4501,-0.4466,-0.4413,-0.439,-0.4363,-0.4358,-0.4352,-0.4351,-0.435,-0.4352,-0.437,-0.4355,-0.4355,-0.4355,-0.4355,-0.4355,0,-0.4792,-0.4769,-0.4741,-0.4702,-0.4679,-0.4665,-0.4633,-0.4613,-0.4584,-0.4554,-0.4526,-0.4487,-0.4454,-0.4419,-0.4383,-0.4368,-0.4359,-0.436,-0.436,-0.4355,-0.4358,-0.4365,-0.4368,-0.4368,-0.4368,-0.4368,-0.4368,-0.4368,-0.4786,-0.4756,-0.4738,-0.4696,-0.4673,-0.4641,-0.4623,-0.4599,-0.4575,-0.4533,-0.4506,-0.4484,-0.4452,-0.4414,-0.4383,-0.4373,-0.4361,-0.4364,-0.4353,-0.4356,-0.4355,-0.4354,-0.436,-0.4362,-0.4362,-0.4352,-0.4352,-0.4352]},{"header":{"parameterUnit":"m.s-1","parameterCategory":1,"la1":30.2991,"la2":30.254,"lo1":-89.0895,"lo2":-89.0444,"dy":0.0017,"dx":0.0017,"nx":28,"ny":28,"refTime":"2024-06-28T03:00:00:Z","depth":0,"parameterNumber":3,"parameterNumberName":"V-component_of_WINDS"},"data":[0,0,0,0,0,0,0,0,0,0,0,0,0,0,0,0,0,0,0,0,0,0,0,0,0,0,0,0,0,0,0,0,0,0,0,0,0,0,0,0,0,0,0,0,0,0,0,0,0,0,0,0,0,0,0,0,0,0,5.4878,5.4878,0,5.4877,5.4877,5.4877,5.4845,5.4844,5.4844,5.4843,5.4842,5.4842,5.4843,0,0,0,0,0,0,0,0,0,0,0,0,0,5.4853,5.4853,5.4878,5.4878,5.4878,5.4877,5.4877,5.4877,5.4845,5.4844,5.4843,5.4843,5.4841,5.4842,5.4843,0,0,0,0,0,0,0,0,0,0,0,0,0,5.4859,5.4853,5.4878,5.4862,5.4861,5.4877,5.4877,5.4877,5.4846,5.4844,5.4843,5.4842,5.4841,5.4842,5.4843,5.4875,0,0,5.4847,5.4847,0,0,0,0,0,0,0,0,5.4859,5.486,5.4865,5.4864,5.4862,5.486,5.4868,5.4876,5.4846,5.4851,5.4843,5.4841,5.4849,5.4849,5.4852,5.4875,5.4875,5.4847,5.4847,5.4848,5.4848,0,0,0,0,0,0,0,5.4858,5.486,5.4878,5.4865,5.4863,5.4855,5.4855,5.4869,5.4857,5.4851,5.4849,5.4849,5.4848,5.4851,5.4851,5.4875,5.4847,5.4848,5.4848,5.4849,5.4923,5.4924,0,0,0,0,0,0,5.486,5.486,5.4878,5.4878,5.4857,5.4857,5.4856,5.4862,5.4857,5.4855,5.485,5.4847,5.4849,5.485,5.4851,5.4887,5.4848,5.4849,5.4849,5.4922,5.4923,5.4925,0,0,0,0,0,0,5.486,5.4862,5.4878,5.4868,5.487,5.4858,5.4865,5.4863,5.4865,5.4856,5.4854,5.4855,5.4848,5.485,5.4869,5.4887,5.4849,5.485,5.492,5.4922,5.4924,5.496,0,0,0,0,0,0,5.4859,5.4862,5.4874,5.4869,5.487,5.4896,5.4866,5.4863,5.4867,5.4864,5.486,5.4859,5.4848,5.4868,5.487,5.4888,5.4851,5.4918,5.4921,5.4923,5.4957,5.4963,5.4968,0,0,0,0,0,5.4858,5.4884,5.4875,5.4877,5.4885,5.4897,5.4898,5.4885,5.4869,5.4881,5.4875,5.4859,5.4885,5.487,5.4872,5.4891,5.4917,5.492,5.4923,5.4955,5.4962,5.4968,0,0,0,0,0,0,5.4892,5.4883,5.4873,5.4898,5.4899,5.4892,5.4906,5.4893,5.4898,5.4895,5.4878,5.4878,5.4899,5.4897,5.4881,5.4921,5.4898,5.4902,5.4921,5.4928,5.4933,5.4933,5.4852,0,0,0,0,0,5.4902,5.4913,5.4905,5.4928,5.4929,5.4918,5.4923,5.4912,5.4912,5.4912,5.4908,5.4908,5.4916,5.4922,5.4929,5.4957,5.4956,5.4971,5.4976,5.4981,5.4984,5.4998,5.5005,5.4934,5.4934,5.4934,0,0,5.4924,5.4921,5.4928,5.4935,5.4934,5.4945,5.4918,5.4931,5.4939,5.4914,5.4932,5.4929,5.4928,5.4952,5.4962,5.4951,5.5003,5.4985,5.4988,5.4989,5.5002,5.5008,5.5014,5.4936,5.4936,5.4936,0,0,5.4969,5.4968,5.4987,5.4986,5.4986,5.4978,5.4983,5.4978,5.4975,5.4992,5.4974,5.4983,5.4998,5.4998,5.5,5.5045,5.503,5.5048,5.5076,5.509,5.5095,5.51,5.5116,5.5122,5.5051,5.5051,5.5051,0,5.4996,5.5012,5.4998,5.5012,5.5015,5.4993,5.5012,5.5013,5.5014,5.5017,5.5004,5.5022,5.502,5.5043,5.5054,5.5057,5.5061,5.5048,5.5096,5.5101,5.5105,5.512,5.5126,5.5053,5.5053,5.5053,5.5053,0,5.5045,5.5057,5.5072,5.5074,5.5079,5.5096,5.5084,5.509,5.508,5.5073,5.5092,5.5089,5.5094,5.5099,5.5089,5.5121,5.5114,5.5099,5.5076,5.5114,5.5127,5.5133,5.5056,5.5056,5.5055,5.5055,0,0,5.5112,5.5105,5.5111,5.5112,5.5109,5.5118,5.5133,5.5139,5.5145,5.5147,5.5159,5.5172,5.5158,5.516,5.515,5.5162,5.5198,5.5145,5.5145,5.5155,5.5232,5.5243,5.525,5.5188,5.5189,5.519,5.5232,0,5.5155,5.5181,5.5168,5.5195,5.5206,5.5185,5.5198,5.5198,5.5193,5.52,5.5194,5.5204,5.5184,5.5186,5.5197,5.5191,5.5213,5.5188,5.5199,5.52,5.5199,5.5257,5.5269,5.5309,5.5237,5.5238,5.5239,0,5.5209,5.5213,5.5241,5.5236,5.524,5.5252,5.5256,5.5264,5.5264,5.5259,5.5261,5.5248,5.5263,5.524,5.526,5.5243,5.5247,5.5245,5.5246,5.5246,5.5221,5.5259,5.5322,5.5328,5.5247,5.5246,5.5246,0,5.5254,5.5266,5.5285,5.5286,5.5281,5.529,5.5288,5.5286,5.529,5.5294,5.5296,5.5302,5.5305,5.5309,5.5298,5.5282,5.5319,5.5295,5.5315,5.5315,5.5323,5.5323,5.5388,5.5327,5.5327,5.5326,5.5326,0,5.5303,5.5321,5.5305,5.5316,5.5336,5.5321,5.5341,5.5337,5.5335,5.5345,5.5328,5.5338,5.5322,5.533,5.5321,5.5339,5.534,5.5337,5.5334,5.5338,5.5339,5.534,5.5337,5.5328,5.5328,5.5327,5.5327,0,5.5357,5.5346,5.5365,5.5359,5.5358,5.5372,5.5367,5.5377,5.537,5.5383,5.5385,5.5375,5.5384,5.5373,5.5381,5.5375,5.5398,5.5392,5.5399,5.5397,5.5417,5.5415,5.5485,5.5493,5.5427,5.5427,5.5428,0,5.5389,5.5402,5.5397,5.5403,5.5402,5.5411,5.5415,5.5401,5.5406,5.5406,5.5416,5.5424,5.5429,5.5444,5.5437,5.5443,5.5436,5.546,5.5437,5.544,5.5436,5.5435,5.5436,5.5465,5.5465,5.5466,5.5467,0,5.5447,5.5441,5.5447,5.5452,5.5458,5.5461,5.5462,5.5468,5.5453,5.546,5.5468,5.5472,5.548,5.5488,5.5492,5.549,5.5476,5.5474,5.5479,5.5483,5.5486,5.5485,5.5411,5.5472,5.5472,5.5471,5.5471,5.5471,5.549,5.5501,5.5499,5.5507,5.5507,5.5509,5.5518,5.5512,5.5519,5.5525,5.5516,5.5527,5.5526,5.5529,5.5529,5.5537,5.5527,5.5534,5.5536,5.5538,5.5541,5.5485,5.5538,5.5538,5.5538,5.5538,5.5537,0,5.5547,5.5545,5.5552,5.5555,5.5561,5.5547,5.5548,5.5554,5.5564,5.5564,5.557,5.558,5.5587,5.558,5.5586,5.5594,5.5588,5.5596,5.5595,5.5595,5.555,5.5545,5.5601,5.5601,5.5601,5.5601,5.5601,5.5601,5.5577,5.5595,5.5589,5.5606,5.5603,5.5614,5.5616,5.5617,5.5617,5.5629,5.5635,5.5631,5.5628,5.5633,5.5639,5.5637,5.564,5.565,5.5646,5.5604,5.5598,5.5592,5.5587,5.5651,5.5651,5.569,5.5691,5.5691]}]]